{"data":{"norad_id":65030,"intl_designator":"2025-161R","name":"STARLINK-34614","alt_names":[],"object_type":"PAYLOAD","status":"ACTIVE","operator":null,"country":"US","launch_date":"2025-07-30","launch_site_code":"AFWTR","launch_vehicle":null,"mission":null,"orbit_class":"UNKNOWN","rcs_meters":null,"size_class":null,"mass_kg":null,"dimensions":null,"purposes":["comms"],"wikipedia_slug":null,"has_3d_model":false,"image_url":null,"decayed_at":null,"tle_current":{"epoch":"2026-09-20T21:59:59.393760Z","epoch_age_seconds":88220,"freshness":"FRESH","line1":"1 65030U 25161R   26263.91665965  .00018363  00000+0  55292-3 0  9991","line2":"2 65030  53.1563 105.7155 0000910  92.5341 267.5766 15.34421155 65244","mean_motion":15.34421155,"eccentricity":9.1e-5,"inclination_deg":53.1563,"raan_deg":105.7155,"arg_perigee_deg":92.5341,"mean_anomaly_deg":267.5766,"bstar":0.00055292,"rev_number":6524,"period_min":93.846464206237,"perigee_km":462.01785307119,"apogee_km":463.2628745514,"semimajor_km":6840.7773638113,"source":"CELESTRAK","updated_at":"2026-09-21T09:00:35.494682Z"}}}